�������l�o���
Date,Time,MP-1(��Sv/h),MP-2(��Sv/h),MP-3(��Sv/h),MP-4(��Sv/h),MP-5(��Sv/h),MP-6(��Sv/h),MP-7(��Sv/h),MP-8(��Sv/h),����,����(m/s),���J
2023/10/11,00:00,0.509,0.773,0.480,0.959,0.690,0.316,0.562,0.523,�k�k��,5.8,��
2023/10/11,00:10,0.510,0.774,0.479,0.958,0.688,0.313,0.561,0.524,�k�k��,5.4,��
2023/10/11,00:20,0.510,0.773,0.479,0.956,0.691,0.316,0.562,0.524,�k��,4.4,��
2023/10/11,00:30,0.510,0.773,0.478,0.957,0.689,0.315,0.562,0.524,�k��,6.2,��
2023/10/11,00:40,0.510,0.774,0.479,0.957,0.689,0.315,0.561,0.524,�k��,8.6,��
2023/10/11,00:50,0.509,0.772,0.478,0.957,0.689,0.315,0.561,0.525,�k��,7.7,��
2023/10/11,01:00,0.509,0.772,0.477,0.957,0.688,0.314,0.562,0.523,�k��,5.9,��
2023/10/11,01:10,0.510,0.772,0.478,0.958,0.689,0.315,0.562,0.523,�k��,5.3,��
2023/10/11,01:20,0.509,0.773,0.478,0.958,0.690,0.313,0.563,0.524,�k�k��,4.4,��
2023/10/11,01:30,0.510,0.775,0.479,0.958,0.689,0.315,0.562,0.523,�k�k��,4.6,��
2023/10/11,01:40,0.509,0.774,0.478,0.956,0.688,0.315,0.562,0.525,�k�k��,5.2,��
2023/10/11,01:50,0.509,0.771,0.478,0.956,0.689,0.315,0.563,0.523,�k�k��,5.0,��
2023/10/11,02:00,0.510,0.773,0.479,0.957,0.689,0.315,0.561,0.524,�k�k��,6.8,��
2023/10/11,02:10,0.509,0.772,0.480,0.956,0.691,0.314,0.563,0.524,�k�k��,6.6,��
2023/10/11,02:20,0.510,0.774,0.478,0.956,0.689,0.314,0.564,0.525,�k��,7.7,��
2023/10/11,02:30,0.508,0.773,0.479,0.957,0.689,0.313,0.563,0.522,�k�k��,7.0,��
2023/10/11,02:40,0.508,0.776,0.478,0.956,0.690,0.315,0.562,0.523,�k��,7.1,��
2023/10/11,02:50,0.510,0.774,0.478,0.960,0.689,0.314,0.563,0.523,�k�k��,7.8,��
2023/10/11,03:00,0.508,0.772,0.479,0.957,0.689,0.314,0.563,0.524,�k��,8.0,��
2023/10/11,03:10,0.510,0.772,0.479,0.959,0.689,0.315,0.561,0.523,�k��,7.4,��
2023/10/11,03:20,0.509,0.773,0.479,0.958,0.689,0.314,0.563,0.523,�k��,5.2,��
2023/10/11,03:30,0.509,0.773,0.478,0.959,0.689,0.315,0.562,0.523,�k��,4.7,��
2023/10/11,03:40,0.510,0.774,0.480,0.959,0.689,0.313,0.564,0.524,�k�k��,5.8,��
2023/10/11,03:50,0.508,0.774,0.478,0.956,0.689,0.315,0.563,0.526,�k�k��,6.5,��
2023/10/11,04:00,0.510,0.774,0.479,0.958,0.689,0.314,0.562,0.522,�k�k��,7.4,��
2023/10/11,04:10,0.509,0.774,0.477,0.956,0.689,0.315,0.562,0.522,�k�k��,6.4,��
2023/10/11,04:20,0.510,0.773,0.478,0.958,0.688,0.314,0.563,0.523,�k�k��,5.3,��
2023/10/11,04:30,0.510,0.773,0.477,0.958,0.688,0.314,0.562,0.523,�k�k��,6.9,��
2023/10/11,04:40,0.509,0.773,0.479,0.958,0.689,0.315,0.563,0.524,�k��,6.3,��
2023/10/11,04:50,0.508,0.771,0.478,0.957,0.689,0.315,0.562,0.523,�k��,6.3,��
2023/10/11,05:00,0.510,0.773,0.478,0.956,0.690,0.314,0.563,0.523,�k��,6.6,��
2023/10/11,05:10,0.509,0.773,0.478,0.959,0.689,0.314,0.563,0.523,�k�k��,6.9,��
2023/10/11,05:20,0.511,0.773,0.478,0.957,0.691,0.314,0.562,0.525,�k�k��,7.6,��
2023/10/11,05:30,0.509,0.775,0.479,0.958,0.688,0.314,0.562,0.522,�k�k��,7.1,��
2023/10/11,05:40,0.510,0.774,0.478,0.959,0.690,0.313,0.563,0.523,�k�k��,6.3,��
2023/10/11,05:50,0.510,0.772,0.477,0.958,0.692,0.315,0.563,0.523,�k�k��,5.1,��
2023/10/11,06:00,0.508,0.771,0.480,0.959,0.690,0.314,0.562,0.523,�k��,5.6,��
2023/10/11,06:10,0.510,0.773,0.478,0.960,0.689,0.315,0.563,0.524,�k�k��,5.0,��
2023/10/11,06:20,0.509,0.772,0.479,0.959,0.689,0.316,0.563,0.524,�k�k��,4.6,��
2023/10/11,06:30,0.511,0.774,0.479,0.958,0.690,0.315,0.563,0.524,�k��,2.6,��
2023/10/11,06:40,0.511,0.774,0.477,0.960,0.691,0.316,0.562,0.524,�k��,0.9,��
2023/10/11,06:50,0.510,0.771,0.479,0.959,0.691,0.315,0.563,0.524,�k�k��,0.6,��
2023/10/11,07:00,0.511,0.774,0.479,0.958,0.691,0.315,0.563,0.524,���k��,1.2,��
2023/10/11,07:10,0.511,0.777,0.479,0.961,0.690,0.316,0.561,0.523,�k��,2.0,��
2023/10/11,07:20,0.509,0.775,0.479,0.957,0.690,0.315,0.564,0.523,�k�k��,3.1,��
2023/10/11,07:30,0.510,0.774,0.479,0.960,0.689,0.315,0.562,0.524,�k�k��,3.1,��
2023/10/11,07:40,0.510,0.774,0.478,0.959,0.689,0.313,0.563,0.523,�k�k��,3.8,��
2023/10/11,07:50,0.510,0.772,0.478,0.959,0.691,0.314,0.562,0.523,�k�k��,3.4,��
2023/10/11,08:00,0.511,0.772,0.479,0.958,0.690,0.315,0.562,0.523,�k�k��,2.2,��
2023/10/11,08:10,0.511,0.770,0.479,0.959,0.688,0.315,0.563,0.523,�k�k��,2.3,�L
2023/10/11,08:20,0.509,0.771,0.479,0.960,0.690,0.314,0.561,0.523,�k�k��,2.8,��
2023/10/11,08:30,0.508,0.772,0.479,0.958,0.690,0.313,0.562,0.524,�k�k��,2.9,��
2023/10/11,08:40,0.508,0.773,0.479,0.959,0.690,0.314,0.561,0.525,�k,4.1,��
2023/10/11,08:50,0.509,0.770,0.478,0.959,0.691,0.313,0.562,0.524,�k,4.6,��
2023/10/11,09:00,0.506,0.773,0.481,0.960,0.690,0.313,0.562,0.524,�k�k��,5.6,��
2023/10/11,09:10,0.506,0.773,0.479,0.959,0.688,0.313,0.560,0.523,�k,5.4,��
2023/10/11,09:20,0.507,0.773,0.477,0.959,0.689,0.312,0.563,0.524,�k,6.3,��
2023/10/11,09:30,0.505,0.773,0.480,0.960,0.687,0.313,0.561,0.521,�k�k��,8.1,��
2023/10/11,09:40,0.507,0.773,0.481,0.961,0.688,0.314,0.561,0.521,�k�k��,6.7,��
2023/10/11,09:50,0.508,0.773,0.481,0.961,0.690,0.314,0.562,0.522,�k�k��,8.1,��
2023/10/11,10:00,0.507,0.773,0.481,0.962,0.689,0.313,0.562,0.522,�k,7.6,��
2023/10/11,10:10,0.510,0.776,0.480,0.960,0.690,0.312,0.561,0.522,�k�k��,8.4,��
2023/10/11,10:20,0.510,0.774,0.479,0.960,0.690,0.314,0.561,0.523,�k�k��,8.9,��
2023/10/11,10:30,0.509,0.774,0.481,0.961,0.691,0.313,0.562,0.524,�k�k��,7.7,��
2023/10/11,10:40,0.511,0.773,0.480,0.961,0.692,0.313,0.561,0.522,�k�k��,7.4,��
2023/10/11,10:50,0.509,0.774,0.480,0.962,0.690,0.314,0.560,0.522,�k�k��,7.1,��
2023/10/11,11:00,0.510,0.774,0.480,0.961,0.692,0.314,0.562,0.523,�k�k��,7.3,��
2023/10/11,11:10,0.509,0.776,0.480,0.961,0.692,0.314,0.560,0.522,�k�k��,6.9,��
2023/10/11,11:20,0.509,0.776,0.481,0.962,0.691,0.313,0.562,0.523,�k�k��,6.5,��
2023/10/11,11:30,0.510,0.775,0.481,0.962,0.692,0.314,0.562,0.523,�k�k��,6.4,��
2023/10/11,11:40,0.510,0.776,0.480,0.961,0.693,0.313,0.561,0.524,�k�k��,6.3,��
2023/10/11,11:50,0.509,0.777,0.481,0.964,0.693,0.314,0.562,0.523,�k�k��,7.0,��
2023/10/11,12:00,0.511,0.776,0.481,0.961,0.693,0.313,0.562,0.524,�k�k��,6.7,��
2023/10/11,12:10,0.510,0.778,0.480,0.963,0.694,0.314,0.562,0.523,�k�k��,6.5,��
2023/10/11,12:20,0.512,0.779,0.482,0.963,0.693,0.314,0.562,0.522,�k�k��,6.6,��
2023/10/11,12:30,0.511,0.777,0.482,0.963,0.692,0.313,0.561,0.524,�k�k��,5.9,��
2023/10/11,12:40,0.510,0.779,0.480,0.964,0.694,0.313,0.561,0.524,�k�k��,5.8,��
2023/10/11,12:50,0.511,0.779,0.482,0.961,0.693,0.312,0.561,0.523,�k�k��,6.0,�L
2023/10/11,13:00,0.512,0.779,0.481,0.963,0.696,0.314,0.562,0.524,�k�k��,6.0,�L
2023/10/11,13:10,0.513,0.777,0.481,0.963,0.693,0.314,0.561,0.523,�k�k��,6.0,��
2023/10/11,13:20,0.513,0.778,0.483,0.965,0.697,0.313,0.562,0.525,�k�k��,5.9,��
2023/10/11,13:30,0.512,0.779,0.481,0.962,0.696,0.313,0.562,0.521,�k��,6.3,��
2023/10/11,13:40,0.512,0.779,0.482,0.964,0.695,0.314,0.562,0.525,�k�k��,5.9,��
2023/10/11,13:50,0.511,0.776,0.481,0.962,0.696,0.314,0.561,0.523,�k�k��,5.4,�L
2023/10/11,14:00,0.511,0.776,0.480,0.961,0.695,0.315,0.561,0.525,�k��,5.4,�L
2023/10/11,14:10,0.511,0.777,0.482,0.964,0.695,0.315,0.561,0.523,�k�k��,5.1,�L
2023/10/11,14:20,0.513,0.775,0.481,0.963,0.694,0.313,0.562,0.523,�k�k��,5.4,��
2023/10/11,14:30,0.512,0.775,0.480,0.964,0.693,0.314,0.562,0.524,�k�k��,4.7,�L
2023/10/11,14:40,0.512,0.776,0.481,0.964,0.695,0.313,0.561,0.524,�k�k��,5.3,�L
2023/10/11,14:50,0.512,0.776,0.481,0.963,0.694,0.314,0.561,0.523,�k,3.4,�L
2023/10/11,15:00,0.511,0.778,0.483,0.965,0.692,0.314,0.562,0.523,�k,4.3,�L
2023/10/11,15:10,0.512,0.777,0.480,0.965,0.694,0.314,0.561,0.525,�k,4.0,��
2023/10/11,15:20,0.509,0.780,0.481,0.965,0.695,0.315,0.561,0.524,�k�k��,4.9,��
2023/10/11,15:30,0.512,0.781,0.482,0.964,0.694,0.315,0.561,0.524,�k,5.9,��
2023/10/11,15:40,0.515,0.780,0.482,0.965,0.694,0.316,0.560,0.523,�k,3.3,��
2023/10/11,15:50,0.514,0.776,0.480,0.964,0.694,0.314,0.563,0.523,�k�k��,1.4,��
2023/10/11,16:00,0.511,0.779,0.482,0.963,0.695,0.315,0.561,0.524,�k,2.5,��
2023/10/11,16:10,0.509,0.779,0.481,0.964,0.693,0.314,0.562,0.525,�k,2.6,��
2023/10/11,16:20,0.511,0.777,0.481,0.964,0.694,0.314,0.561,0.523,�k,2.0,��
2023/10/11,16:30,0.511,0.778,0.481,0.961,0.693,0.314,0.561,0.522,�k��,1.5,��
2023/10/11,16:40,0.511,0.779,0.482,0.962,0.695,0.314,0.561,0.524,�k�k��,2.5,��
2023/10/11,16:50,0.513,0.781,0.481,0.961,0.693,0.314,0.561,0.524,�k��,2.2,��
2023/10/11,17:00,0.511,0.782,0.481,0.963,0.697,0.315,0.561,0.524,�k��,1.9,��
2023/10/11,17:10,0.510,0.781,0.480,0.964,0.698,0.315,0.562,0.525,�k��,2.3,��
2023/10/11,17:20,0.511,0.782,0.482,0.965,0.698,0.315,0.561,0.526,�k��,2.6,��
2023/10/11,17:30,0.514,0.782,0.483,0.967,0.697,0.315,0.563,0.526,�k��,2.5,��
2023/10/11,17:40,0.513,0.782,0.483,0.965,0.698,0.315,0.563,0.526,�k��,2.2,��
2023/10/11,17:50,0.515,0.782,0.482,0.963,0.697,0.315,0.563,0.525,�k��,2.0,��
2023/10/11,18:00,0.513,0.783,0.481,0.966,0.698,0.314,0.563,0.525,�k��,2.6,��
2023/10/11,18:10,0.514,0.781,0.485,0.963,0.697,0.315,0.564,0.525,�k��,3.0,��
2023/10/11,18:20,0.514,0.780,0.484,0.964,0.697,0.315,0.562,0.525,�k��,2.6,��
2023/10/11,18:30,0.513,0.780,0.483,0.964,0.697,0.315,0.563,0.525,���k��,2.3,��
2023/10/11,18:40,0.514,0.783,0.483,0.965,0.697,0.315,0.563,0.525,���k��,3.0,��
2023/10/11,18:50,0.513,0.782,0.484,0.966,0.697,0.316,0.564,0.525,���k��,2.8,��
2023/10/11,19:00,0.514,0.781,0.483,0.966,0.696,0.314,0.563,0.525,���k��,2.9,��
2023/10/11,19:10,0.514,0.782,0.484,0.967,0.698,0.315,0.565,0.525,���k��,3.2,��
2023/10/11,19:20,0.512,0.783,0.484,0.966,0.697,0.315,0.564,0.524,���k��,2.6,��
2023/10/11,19:30,0.514,0.782,0.483,0.967,0.697,0.315,0.564,0.527,���k��,2.6,��
2023/10/11,19:40,0.514,0.783,0.484,0.964,0.696,0.315,0.564,0.525,�k��,3.3,��
2023/10/11,19:50,0.512,0.781,0.484,0.967,0.697,0.315,0.563,0.526,�k��,3.3,��
2023/10/11,20:00,0.514,0.782,0.485,0.969,0.699,0.314,0.562,0.525,���k��,3.3,��
2023/10/11,20:10,0.514,0.784,0.483,0.965,0.697,0.316,0.563,0.524,���k��,3.5,��
2023/10/11,20:20,0.514,0.782,0.482,0.965,0.698,0.315,0.564,0.526,���k��,3.3,��
2023/10/11,20:30,0.514,0.780,0.483,0.966,0.696,0.316,0.564,0.526,���k��,3.4,��
2023/10/11,20:40,0.514,0.782,0.483,0.967,0.698,0.317,0.563,0.526,���k��,3.9,��
2023/10/11,20:50,0.514,0.780,0.483,0.967,0.699,0.317,0.564,0.526,���k��,4.4,��
2023/10/11,21:00,0.514,0.782,0.485,0.967,0.696,0.315,0.564,0.525,���k��,4.9,��
2023/10/11,21:10,0.513,0.783,0.483,0.966,0.698,0.314,0.564,0.524,���k��,4.6,��
2023/10/11,21:20,0.514,0.782,0.482,0.968,0.697,0.315,0.562,0.526,�k��,4.8,��
2023/10/11,21:30,0.512,0.781,0.482,0.968,0.697,0.316,0.565,0.526,�k��,4.3,��
2023/10/11,21:40,0.513,0.783,0.484,0.966,0.697,0.315,0.564,0.524,�k��,4.6,��
2023/10/11,21:50,0.513,0.782,0.482,0.967,0.698,0.315,0.567,0.524,�k��,4.5,��
2023/10/11,22:00,0.513,0.782,0.482,0.968,0.697,0.317,0.565,0.526,�k��,4.5,��
2023/10/11,22:10,0.515,0.783,0.483,0.966,0.695,0.314,0.565,0.525,�k��,5.4,��
2023/10/11,22:20,0.514,0.780,0.483,0.964,0.698,0.315,0.566,0.526,�k�k��,5.6,��
2023/10/11,22:30,0.514,0.782,0.482,0.966,0.698,0.316,0.564,0.526,�k�k��,5.5,��
2023/10/11,22:40,0.514,0.780,0.483,0.967,0.695,0.315,0.565,0.526,�k�k��,6.4,��
2023/10/11,22:50,0.514,0.780,0.482,0.966,0.696,0.316,0.565,0.524,�k�k��,6.4,��
2023/10/11,23:00,0.514,0.780,0.482,0.967,0.696,0.315,0.565,0.525,�k�k��,6.0,��
2023/10/11,23:10,0.513,0.781,0.483,0.967,0.697,0.314,0.565,0.526,�k�k��,5.3,��
2023/10/11,23:20,0.512,0.780,0.483,0.967,0.696,0.315,0.566,0.524,�k��,5.0,��
2023/10/11,23:30,0.514,0.782,0.483,0.969,0.697,0.314,0.565,0.527,�k��,5.1,��
2023/10/11,23:40,0.516,0.781,0.484,0.969,0.696,0.314,0.566,0.526,�k��,5.1,��
2023/10/11,23:50,0.512,0.782,0.482,0.968,0.697,0.315,0.566,0.525,�k�k��,5.5,��
